Time,TemperatureF,DewpointF,PressureIn,WindDirection,WindDirectionDegrees,WindSpeedMPH,WindSpeedGustMPH,Humidity,HourlyPrecipIn,Conditions,Clouds,dailyrainin,SoftwareType,DateUTC
2013-01-28 00:01:00,65.1,58.8,30.24,ESE,103,0.0,1.0,80,0.00,,---,0.00,VWS V13.01,2013-01-28 05:01:00,
2013-01-28 00:03:00,65.1,58.8,30.24,East,98,0.0,2.0,80,0.00,,---,0.00,VWS V13.01,2013-01-28 05:03:00,
2013-01-28 00:08:00,65.0,58.7,30.23,East,98,0.0,2.0,80,0.00,,---,0.00,VWS V13.01,2013-01-28 05:08:00,
2013-01-28 00:13:00,64.9,58.6,30.23,East,88,0.0,2.0,80,0.00,,---,0.00,VWS V13.01,2013-01-28 05:13:00,
2013-01-28 00:18:00,64.8,58.8,30.23,East,86,0.0,2.0,81,0.00,,---,0.00,VWS V13.01,2013-01-28 05:18:00,
2013-01-28 00:23:00,64.7,58.7,30.23,East,90,0.0,2.0,81,0.00,,---,0.00,VWS V13.01,2013-01-28 05:23:00,
2013-01-28 00:28:00,64.6,58.7,30.23,East,98,0.0,2.0,81,0.00,,---,0.00,VWS V13.01,2013-01-28 05:28:00,
2013-01-28 00:33:00,64.5,58.5,30.23,ENE,76,0.0,4.0,81,0.00,,---,0.00,VWS V13.01,2013-01-28 05:33:00,
2013-01-28 00:39:00,64.5,58.9,30.23,East,79,0.0,4.0,82,0.00,,---,0.00,VWS V13.01,2013-01-28 05:39:00,
2013-01-28 00:44:00,64.5,58.9,30.23,East,79,0.0,4.0,82,0.00,,---,0.00,VWS V13.01,2013-01-28 05:44:00,
2013-01-28 00:49:00,64.4,58.8,30.24,ENE,78,0.0,4.0,82,0.00,,---,0.00,VWS V13.01,2013-01-28 05:49:00,
2013-01-28 00:54:00,64.3,58.7,30.24,ENE,76,0.0,4.0,82,0.00,,---,0.00,VWS V13.01,2013-01-28 05:54:00,
2013-01-28 00:59:00,64.2,58.9,30.24,ENE,76,0.0,4.0,83,0.00,,---,0.00,VWS V13.01,2013-01-28 05:59:00,
2013-01-28 01:04:00,64.0,58.7,30.24,ENE,76,0.0,0.0,83,0.00,,---,0.00,VWS V13.01,2013-01-28 06:04:00,
2013-01-28 01:09:00,63.9,58.6,30.24,ENE,76,0.0,0.0,83,0.00,,---,0.00,VWS V13.01,2013-01-28 06:09:00,
2013-01-28 01:14:00,63.7,58.5,30.24,ENE,76,0.0,0.0,83,0.00,,---,0.00,VWS V13.01,2013-01-28 06:14:00,
2013-01-28 01:19:00,63.5,58.2,30.24,ENE,76,0.0,0.0,83,0.00,,---,0.00,VWS V13.01,2013-01-28 06:19:00,
2013-01-28 01:24:00,63.3,58.4,30.24,ENE,76,0.0,0.0,84,0.00,,---,0.00,VWS V13.01,2013-01-28 06:24:00,
2013-01-28 01:29:00,63.1,58.2,30.24,ENE,76,0.0,0.0,84,0.00,,---,0.00,VWS V13.01,2013-01-28 06:29:00,
2013-01-28 01:34:00,63.0,58.4,30.24,ENE,76,0.0,0.0,85,0.00,,---,0.00,VWS V13.01,2013-01-28 06:34:00,
2013-01-28 01:39:00,63.0,58.4,30.23,ENE,76,0.0,0.0,85,0.00,,---,0.00,VWS V13.01,2013-01-28 06:39:00,
2013-01-28 01:44:00,62.9,58.3,30.23,ENE,76,0.0,0.0,85,0.00,,---,0.00,VWS V13.01,2013-01-28 06:44:00,
2013-01-28 01:49:00,62.8,58.6,30.23,ENE,76,0.0,0.0,86,0.00,,---,0.00,VWS V13.01,2013-01-28 06:49:00,
2013-01-28 01:54:00,62.7,58.5,30.23,ENE,76,0.0,0.0,86,0.00,,---,0.00,VWS V13.01,2013-01-28 06:54:00,
2013-01-28 01:59:00,62.6,58.4,30.23,ENE,76,0.0,0.0,86,0.00,,---,0.00,VWS V13.01,2013-01-28 06:59:00,
2013-01-28 02:05:00,62.5,58.3,30.23,ENE,76,0.0,0.0,86,0.00,,---,0.00,VWS V13.01,2013-01-28 07:05:00,
2013-01-28 02:10:00,62.5,58.3,30.23,ENE,76,0.0,0.0,86,0.00,,---,0.00,VWS V13.01,2013-01-28 07:10:00,
2013-01-28 02:15:00,62.4,58.5,30.23,ENE,76,0.0,0.0,87,0.00,,---,0.00,VWS V13.01,2013-01-28 07:15:00,
2013-01-28 02:20:00,62.5,58.6,30.23,East,81,0.0,0.0,87,0.00,,---,0.00,VWS V13.01,2013-01-28 07:20:00,
2013-01-28 02:25:00,62.6,58.7,30.23,East,84,0.0,0.0,87,0.00,,---,0.00,VWS V13.01,2013-01-28 07:25:00,
2013-01-28 02:30:00,62.7,58.8,30.23,East,84,0.0,0.0,87,0.00,,---,0.00,VWS V13.01,2013-01-28 07:30:00,
2013-01-28 02:35:00,62.7,58.8,30.22,East,84,0.0,0.0,87,0.00,,---,0.00,VWS V13.01,2013-01-28 07:35:00,
2013-01-28 02:40:00,62.7,58.8,30.22,East,84,0.0,0.0,87,0.00,,---,0.00,VWS V13.01,2013-01-28 07:40:00,
2013-01-28 02:45:00,62.6,59.0,30.22,East,83,0.0,0.0,88,0.00,,---,0.00,VWS V13.01,2013-01-28 07:45:00,
2013-01-28 02:50:00,62.7,59.1,30.23,East,83,0.0,0.0,88,0.00,,---,0.00,VWS V13.01,2013-01-28 07:50:00,
2013-01-28 02:55:00,62.7,59.1,30.22,East,82,0.0,0.0,88,0.00,,---,0.00,VWS V13.01,2013-01-28 07:55:00,
2013-01-28 03:00:00,62.7,59.1,30.22,East,82,0.0,0.0,88,0.00,,---,0.00,VWS V13.01,2013-01-28 08:00:00,
2013-01-28 03:05:00,62.8,59.2,30.22,East,82,0.0,0.0,88,0.00,,---,0.00,VWS V13.01,2013-01-28 08:05:00,
2013-01-28 03:10:00,62.8,59.2,30.22,East,82,0.0,0.0,88,0.00,,---,0.00,VWS V13.01,2013-01-28 08:10:00,
2013-01-28 03:16:00,62.7,59.1,30.22,East,82,0.0,0.0,88,0.00,,---,0.00,VWS V13.01,2013-01-28 08:16:00,
2013-01-28 03:21:00,62.7,59.1,30.22,East,82,0.0,0.0,88,0.00,,---,0.00,VWS V13.01,2013-01-28 08:21:00,
2013-01-28 03:26:00,62.7,59.1,30.22,East,82,0.0,0.0,88,0.00,,---,0.00,VWS V13.01,2013-01-28 08:26:00,
2013-01-28 03:31:00,62.7,59.1,30.23,East,82,0.0,0.0,88,0.00,,---,0.00,VWS V13.01,2013-01-28 08:31:00,
2013-01-28 03:36:00,62.8,59.2,30.22,East,82,0.0,0.0,88,0.00,,---,0.00,VWS V13.01,2013-01-28 08:36:00,
2013-01-28 03:41:00,62.8,59.2,30.23,East,82,0.0,0.0,88,0.00,,---,0.00,VWS V13.01,2013-01-28 08:41:00,
2013-01-28 03:46:00,62.9,59.3,30.23,East,82,0.0,0.0,88,0.00,,---,0.00,VWS V13.01,2013-01-28 08:46:00,
2013-01-28 03:51:00,62.9,59.6,30.23,East,81,0.0,0.0,89,0.00,,---,0.00,VWS V13.01,2013-01-28 08:51:00,
2013-01-28 03:56:00,62.9,59.6,30.23,East,82,0.0,0.0,89,0.00,,---,0.00,VWS V13.01,2013-01-28 08:56:00,
2013-01-28 04:01:00,62.9,59.6,30.23,East,82,0.0,0.0,89,0.00,,---,0.00,VWS V13.01,2013-01-28 09:01:00,
2013-01-28 04:06:00,62.9,59.6,30.23,East,82,0.0,0.0,89,0.00,,---,0.00,VWS V13.01,2013-01-28 09:06:00,
2013-01-28 04:12:00,62.9,59.6,30.23,East,82,0.0,0.0,89,0.00,,---,0.00,VWS V13.01,2013-01-28 09:12:00,
2013-01-28 04:17:00,62.8,59.5,30.23,East,82,0.0,0.0,89,0.00,,---,0.00,VWS V13.01,2013-01-28 09:17:00,
2013-01-28 04:22:00,62.8,59.5,30.23,East,82,0.0,0.0,89,0.00,,---,0.00,VWS V13.01,2013-01-28 09:22:00,
2013-01-28 04:27:00,62.8,59.5,30.23,East,82,0.0,0.0,89,0.00,,---,0.00,VWS V13.01,2013-01-28 09:27:00,
2013-01-28 04:32:00,62.7,59.4,30.22,East,82,0.0,0.0,89,0.00,,---,0.00,VWS V13.01,2013-01-28 09:32:00,
2013-01-28 04:37:00,62.7,59.4,30.22,East,82,0.0,0.0,89,0.00,,---,0.00,VWS V13.01,2013-01-28 09:37:00,
2013-01-28 04:42:00,62.6,59.3,30.22,East,82,0.0,0.0,89,0.00,,---,0.00,VWS V13.01,2013-01-28 09:42:00,
2013-01-28 04:47:00,62.6,59.3,30.22,East,82,0.0,0.0,89,0.00,,---,0.00,VWS V13.01,2013-01-28 09:47:00,
2013-01-28 04:52:00,62.6,59.3,30.22,East,82,0.0,0.0,89,0.00,,---,0.00,VWS V13.01,2013-01-28 09:52:00,
2013-01-28 04:57:00,62.6,59.3,30.23,East,82,0.0,0.0,89,0.00,,---,0.00,VWS V13.01,2013-01-28 09:57:00,
2013-01-28 05:02:00,62.6,59.3,30.23,East,82,0.0,0.0,89,0.00,,---,0.00,VWS V13.01,2013-01-28 10:02:00,
2013-01-28 05:07:00,62.6,59.3,30.23,East,82,0.0,0.0,89,0.00,,---,0.00,VWS V13.01,2013-01-28 10:07:00,
2013-01-28 05:13:00,62.7,59.4,30.23,East,82,0.0,0.0,89,0.00,,---,0.00,VWS V13.01,2013-01-28 10:13:00,
2013-01-28 05:18:00,62.7,59.4,30.23,East,82,0.0,0.0,89,0.00,,---,0.00,VWS V13.01,2013-01-28 10:18:00,
2013-01-28 05:23:00,62.7,59.4,30.23,East,82,0.0,0.0,89,0.00,,---,0.00,VWS V13.01,2013-01-28 10:23:00,
2013-01-28 05:28:00,62.7,59.4,30.23,East,82,0.0,0.0,89,0.00,,---,0.00,VWS V13.01,2013-01-28 10:28:00,
2013-01-28 05:33:00,62.7,59.4,30.23,East,82,0.0,0.0,89,0.00,,---,0.00,VWS V13.01,2013-01-28 10:33:00,
2013-01-28 05:38:00,62.8,59.5,30.23,East,82,0.0,0.0,89,0.00,,---,0.00,VWS V13.01,2013-01-28 10:38:00,
2013-01-28 05:43:00,62.8,59.5,30.23,East,82,0.0,0.0,89,0.00,,---,0.00,VWS V13.01,2013-01-28 10:43:00,
2013-01-28 05:48:00,62.8,59.5,30.23,East,82,0.0,0.0,89,0.00,,---,0.00,VWS V13.01,2013-01-28 10:48:00,
2013-01-28 05:53:00,62.8,59.5,30.23,East,82,0.0,0.0,89,0.00,,---,0.00,VWS V13.01,2013-01-28 10:53:00,
2013-01-28 05:58:00,62.9,59.6,30.23,East,82,0.0,0.0,89,0.00,,---,0.00,VWS V13.01,2013-01-28 10:58:00,
2013-01-28 06:03:00,63.0,59.7,30.23,East,81,0.0,0.0,89,0.00,,---,0.00,VWS V13.01,2013-01-28 11:03:00,
2013-01-28 06:08:00,63.1,59.8,30.23,East,82,0.0,0.0,89,0.00,,---,0.00,VWS V13.01,2013-01-28 11:08:00,
2013-01-28 06:13:00,63.2,59.9,30.23,East,80,0.0,0.0,89,0.00,,---,0.00,VWS V13.01,2013-01-28 11:13:00,
2013-01-28 06:18:00,63.2,59.9,30.23,East,80,0.0,0.0,89,0.00,,---,0.00,VWS V13.01,2013-01-28 11:18:00,
2013-01-28 06:24:00,63.3,60.0,30.23,East,87,0.0,3.0,89,0.00,,---,0.00,VWS V13.01,2013-01-28 11:24:00,
2013-01-28 06:29:00,63.4,60.1,30.23,ESE,107,0.0,3.0,89,0.00,,---,0.00,VWS V13.01,2013-01-28 11:29:00,
2013-01-28 06:34:00,63.4,60.1,30.23,ENE,78,0.0,0.0,89,0.00,,---,0.00,VWS V13.01,2013-01-28 11:34:00,
2013-01-28 06:39:00,63.4,60.1,30.24,East,83,0.0,0.0,89,0.00,,---,0.00,VWS V13.01,2013-01-28 11:39:00,
2013-01-28 06:44:00,63.4,60.1,30.24,ENE,75,0.0,0.0,89,0.00,,---,0.00,VWS V13.01,2013-01-28 11:44:00,
2013-01-28 06:49:00,63.3,60.0,30.24,ENE,75,0.0,0.0,89,0.00,,---,0.00,VWS V13.01,2013-01-28 11:49:00,
2013-01-28 06:54:00,63.3,60.0,30.25,ENE,75,0.0,0.0,89,0.00,,---,0.00,VWS V13.01,2013-01-28 11:54:00,
2013-01-28 06:59:00,63.2,59.9,30.25,ENE,75,0.0,0.0,89,0.00,,---,0.00,VWS V13.01,2013-01-28 11:59:00,
2013-01-28 07:04:00,63.2,59.9,30.25,ENE,73,0.0,0.0,89,0.00,,---,0.00,VWS V13.01,2013-01-28 12:04:00,
2013-01-28 07:09:00,63.2,59.9,30.25,ENE,74,0.0,0.0,89,0.00,,---,0.00,VWS V13.01,2013-01-28 12:09:00,
2013-01-28 07:14:00,63.2,59.9,30.25,ENE,73,0.0,0.0,89,0.00,,---,0.00,VWS V13.01,2013-01-28 12:14:00,
2013-01-28 07:19:00,63.2,59.9,30.25,ENE,74,0.0,0.0,89,0.00,,---,0.00,VWS V13.01,2013-01-28 12:19:00,
2013-01-28 07:24:00,63.2,59.9,30.25,ENE,74,0.0,0.0,89,0.00,,---,0.00,VWS V13.01,2013-01-28 12:24:00,
2013-01-28 07:29:00,63.3,60.0,30.25,East,82,0.0,0.0,89,0.00,,---,0.00,VWS V13.01,2013-01-28 12:29:00,
2013-01-28 07:34:00,63.3,60.0,30.25,ENE,78,0.0,0.0,89,0.00,,---,0.00,VWS V13.01,2013-01-28 12:34:00,
2013-01-28 07:40:00,63.4,60.1,30.25,East,82,0.0,0.0,89,0.00,,---,0.00,VWS V13.01,2013-01-28 12:40:00,
2013-01-28 07:45:00,63.5,60.2,30.25,East,87,0.0,0.0,89,0.00,,---,0.00,VWS V13.01,2013-01-28 12:45:00,
2013-01-28 07:50:00,63.6,60.3,30.25,East,98,0.0,0.0,89,0.00,,---,0.00,VWS V13.01,2013-01-28 12:50:00,
2013-01-28 07:55:00,63.8,60.5,30.26,ENE,78,0.0,0.0,89,0.00,,---,0.00,VWS V13.01,2013-01-28 12:55:00,
2013-01-28 08:00:00,63.9,60.6,30.26,East,87,0.0,0.0,89,0.00,,---,0.00,VWS V13.01,2013-01-28 13:00:00,
2013-01-28 08:05:00,64.1,60.8,30.26,ESE,102,0.0,0.0,89,0.00,,---,0.00,VWS V13.01,2013-01-28 13:05:00,
2013-01-28 08:10:00,64.3,61.0,30.26,ESE,121,0.0,0.0,89,0.00,,---,0.00,VWS V13.01,2013-01-28 13:10:00,
2013-01-28 08:15:00,64.5,61.2,30.26,East,100,0.0,0.0,89,0.00,,---,0.00,VWS V13.01,2013-01-28 13:15:00,
2013-01-28 08:20:00,64.8,61.2,30.26,East,84,0.0,0.0,88,0.00,,---,0.00,VWS V13.01,2013-01-28 13:20:00,
2013-01-28 08:25:00,65.2,61.6,30.26,ESE,121,0.0,0.0,88,0.00,,---,0.00,VWS V13.01,2013-01-28 13:25:00,
2013-01-28 08:30:00,65.7,62.0,30.26,SE,140,0.0,0.0,88,0.00,,---,0.00,VWS V13.01,2013-01-28 13:30:00,
2013-01-28 08:35:00,66.2,62.5,30.26,ESE,105,0.0,0.0,88,0.00,,---,0.00,VWS V13.01,2013-01-28 13:35:00,
2013-01-28 08:41:00,66.6,62.6,30.26,ESE,119,0.0,0.0,87,0.00,,---,0.00,VWS V13.01,2013-01-28 13:41:00,
2013-01-28 08:46:00,66.9,62.9,30.26,ESE,103,0.0,7.0,87,0.00,,---,0.00,VWS V13.01,2013-01-28 13:46:00,
2013-01-28 08:51:00,67.2,63.2,30.26,East,92,0.0,7.0,87,0.00,,---,0.00,VWS V13.01,2013-01-28 13:51:00,
2013-01-28 08:56:00,67.6,63.3,30.27,East,94,0.0,7.0,86,0.00,,---,0.00,VWS V13.01,2013-01-28 13:56:00,
2013-01-28 09:01:00,68.0,63.7,30.27,SE,131,0.0,0.0,86,0.00,,---,0.00,VWS V13.01,2013-01-28 14:01:00,
2013-01-28 09:06:00,68.2,63.5,30.27,ENE,72,0.0,1.0,85,0.00,,---,0.00,VWS V13.01,2013-01-28 14:06:00,
2013-01-28 09:11:00,68.5,63.8,30.27,East,97,0.0,1.0,85,0.00,,---,0.00,VWS V13.01,2013-01-28 14:11:00,
2013-01-28 09:16:00,68.7,64.0,30.27,NE,37,0.0,1.0,85,0.00,,---,0.00,VWS V13.01,2013-01-28 14:16:00,
2013-01-28 09:21:00,68.9,63.9,30.27,ESE,105,0.0,1.0,84,0.00,,---,0.00,VWS V13.01,2013-01-28 14:21:00,
2013-01-28 09:26:00,69.1,64.4,30.27,ESE,111,0.0,1.0,85,0.00,,---,0.00,VWS V13.01,2013-01-28 14:26:00,
2013-01-28 09:32:00,69.4,64.4,30.27,SSE,156,2.0,11.0,84,0.00,,---,0.00,VWS V13.01,2013-01-28 14:32:00,
2013-01-28 09:37:00,69.6,64.2,30.27,ESE,105,0.0,11.0,83,0.00,,---,0.00,VWS V13.01,2013-01-28 14:37:00,
2013-01-28 09:42:00,69.8,64.8,30.27,ESE,117,0.0,11.0,84,0.00,,---,0.00,VWS V13.01,2013-01-28 14:42:00,
2013-01-28 09:47:00,70.1,64.7,30.27,SSW,205,0.0,11.0,83,0.00,,---,0.00,VWS V13.01,2013-01-28 14:47:00,
2013-01-28 09:52:00,70.4,64.7,30.27,ENE,72,0.0,11.0,82,0.00,,---,0.00,VWS V13.01,2013-01-28 14:52:00,
2013-01-28 09:57:00,70.7,64.9,30.27,ESE,119,4.0,11.0,82,0.00,,---,0.00,VWS V13.01,2013-01-28 14:57:00,
2013-01-28 10:02:00,71.1,65.0,30.27,ESE,123,4.0,7.0,81,0.00,,---,0.00,VWS V13.01,2013-01-28 15:02:00,
2013-01-28 10:07:00,71.5,65.0,30.27,ESE,113,5.0,13.0,80,0.00,,---,0.00,VWS V13.01,2013-01-28 15:07:00,
2013-01-28 10:12:00,72.0,65.1,30.27,ESE,120,5.0,13.0,79,0.00,,---,0.00,VWS V13.01,2013-01-28 15:12:00,
2013-01-28 10:17:00,72.1,64.9,30.27,SSE,152,3.0,13.0,78,0.00,,---,0.00,VWS V13.01,2013-01-28 15:17:00,
2013-01-28 10:22:00,72.2,65.0,30.27,ESE,123,0.0,13.0,78,0.00,,---,0.00,VWS V13.01,2013-01-28 15:22:00,
2013-01-28 10:27:00,72.5,64.9,30.27,ESE,106,0.0,13.0,77,0.00,,---,0.00,VWS V13.01,2013-01-28 15:27:00,
2013-01-28 10:32:00,72.8,65.6,30.27,ESE,115,0.0,2.0,78,0.00,,---,0.00,VWS V13.01,2013-01-28 15:32:00,
2013-01-28 10:37:00,73.2,64.8,30.27,ESE,108,0.0,11.0,75,0.00,,---,0.00,VWS V13.01,2013-01-28 15:37:00,
2013-01-28 10:42:00,73.4,65.0,30.27,ESE,122,0.0,11.0,75,0.00,,---,0.00,VWS V13.01,2013-01-28 15:42:00,
2013-01-28 10:48:00,74.2,65.8,30.27,ENE,77,0.0,11.0,75,0.00,,---,0.00,VWS V13.01,2013-01-28 15:48:00,
2013-01-28 10:53:00,74.8,65.6,30.27,SE,141,0.0,11.0,73,0.00,,---,0.00,VWS V13.01,2013-01-28 15:53:00,
2013-01-28 10:58:00,75.1,65.5,30.27,ESE,103,3.0,11.0,72,0.00,,---,0.00,VWS V13.01,2013-01-28 15:58:00,
2013-01-28 11:03:00,75.8,65.7,30.27,SE,144,7.0,8.0,71,0.00,,---,0.00,VWS V13.01,2013-01-28 16:03:00,
2013-01-28 11:08:00,76.0,64.7,30.27,SE,136,1.0,8.0,68,0.00,,---,0.00,VWS V13.01,2013-01-28 16:08:00,
2013-01-28 11:13:00,76.1,64.4,30.27,ESE,121,1.0,10.0,67,0.00,,---,0.00,VWS V13.01,2013-01-28 16:13:00,
2013-01-28 11:18:00,75.9,64.6,30.27,SSE,152,2.0,10.0,68,0.00,,---,0.00,VWS V13.01,2013-01-28 16:18:00,
2013-01-28 11:23:00,76.5,65.2,30.27,SE,124,0.0,10.0,68,0.00,,---,0.00,VWS V13.01,2013-01-28 16:23:00,
2013-01-28 11:28:00,76.7,64.9,30.27,SSE,163,0.0,14.0,67,0.00,,---,0.00,VWS V13.01,2013-01-28 16:28:00,
2013-01-28 11:33:00,75.9,64.6,30.27,East,85,6.0,13.0,68,0.00,,---,0.00,VWS V13.01,2013-01-28 16:33:00,
2013-01-28 11:38:00,75.8,64.9,30.27,ESE,111,1.0,13.0,69,0.00,,---,0.00,VWS V13.01,2013-01-28 16:38:00,
2013-01-28 11:43:00,75.7,64.8,30.27,East,99,0.0,13.0,69,0.00,,---,0.00,VWS V13.01,2013-01-28 16:43:00,
2013-01-28 11:48:00,75.8,65.3,30.27,ESE,115,1.0,13.0,70,0.00,,---,0.00,VWS V13.01,2013-01-28 16:48:00,
2013-01-28 11:53:00,75.9,65.0,30.26,East,90,2.0,13.0,69,0.00,,---,0.00,VWS V13.01,2013-01-28 16:53:00,
2013-01-28 11:58:00,76.6,65.3,30.26,ESE,116,2.0,13.0,68,0.00,,---,0.00,VWS V13.01,2013-01-28 16:58:00,
2013-01-28 12:04:00,77.5,66.1,30.26,ESE,110,0.0,7.0,68,0.00,,---,0.00,VWS V13.01,2013-01-28 17:04:00,
2013-01-28 12:09:00,78.2,65.5,30.26,SE,142,5.0,7.0,65,0.00,,---,0.00,VWS V13.01,2013-01-28 17:09:00,
2013-01-28 12:14:00,78.5,65.8,30.25,ESE,120,0.0,7.0,65,0.00,,---,0.00,VWS V13.01,2013-01-28 17:14:00,
2013-01-28 12:19:00,78.9,66.2,30.25,ESE,117,0.0,7.0,65,0.00,,---,0.00,VWS V13.01,2013-01-28 17:19:00,
2013-01-28 12:24:00,79.4,66.2,30.25,SE,125,0.0,7.0,64,0.00,,---,0.00,VWS V13.01,2013-01-28 17:24:00,
2013-01-28 12:29:00,79.4,64.3,30.25,SSE,152,0.0,7.0,60,0.00,,---,0.00,VWS V13.01,2013-01-28 17:29:00,
2013-01-28 12:34:00,79.1,64.0,30.24,ESE,109,0.0,1.0,60,0.00,,---,0.00,VWS V13.01,2013-01-28 17:34:00,
2013-01-28 12:39:00,79.5,63.9,30.24,ESE,114,0.0,1.0,59,0.00,,---,0.00,VWS V13.01,2013-01-28 17:39:00,
2013-01-28 12:44:00,79.8,63.7,30.24,ESE,111,0.0,1.0,58,0.00,,---,0.00,VWS V13.01,2013-01-28 17:44:00,
2013-01-28 12:49:00,80.1,63.5,30.24,SE,127,0.0,1.0,57,0.00,,---,0.00,VWS V13.01,2013-01-28 17:49:00,
2013-01-28 12:54:00,80.0,63.4,30.23,SE,135,0.0,1.0,57,0.00,,---,0.00,VWS V13.01,2013-01-28 17:54:00,
2013-01-28 12:59:00,80.0,63.9,30.23,SSE,151,0.0,1.0,58,0.00,,---,0.00,VWS V13.01,2013-01-28 17:59:00,
2013-01-28 13:04:00,80.1,63.5,30.23,ENE,62,0.0,1.0,57,0.00,,---,0.00,VWS V13.01,2013-01-28 18:04:00,
2013-01-28 13:09:00,79.8,63.2,30.23,SSE,163,0.0,1.0,57,0.00,,---,0.00,VWS V13.01,2013-01-28 18:09:00,
2013-01-28 13:14:00,79.8,63.2,30.22,ESE,123,0.0,1.0,57,0.00,,---,0.00,VWS V13.01,2013-01-28 18:14:00,
2013-01-28 13:19:00,79.6,63.0,30.22,SSE,161,0.0,1.0,57,0.00,,---,0.00,VWS V13.01,2013-01-28 18:19:00,
2013-01-28 13:25:00,80.0,63.4,30.22,ESE,123,0.0,1.0,57,0.00,,---,0.00,VWS V13.01,2013-01-28 18:25:00,
2013-01-28 13:30:00,80.3,63.2,30.21,East,92,0.0,0.0,56,0.00,,---,0.00,VWS V13.01,2013-01-28 18:30:00,
2013-01-28 13:35:00,80.2,63.1,30.21,ESE,105,0.0,1.0,56,0.00,,---,0.00,VWS V13.01,2013-01-28 18:35:00,
2013-01-28 13:40:00,79.8,64.2,30.21,SSE,151,0.0,1.0,59,0.00,,---,0.00,VWS V13.01,2013-01-28 18:40:00,
2013-01-28 13:45:00,78.7,65.1,30.21,West,266,0.0,1.0,63,0.00,,---,0.00,VWS V13.01,2013-01-28 18:45:00,
2013-01-28 13:50:00,78.1,64.9,30.21,SSW,200,0.0,1.0,64,0.00,,---,0.00,VWS V13.01,2013-01-28 18:50:00,
2013-01-28 13:55:00,77.8,65.5,30.21,SSW,198,0.0,1.0,66,0.00,,---,0.00,VWS V13.01,2013-01-28 18:55:00,
2013-01-28 14:00:00,77.5,65.3,30.20,SSW,200,0.0,0.0,66,0.00,,---,0.00,VWS V13.01,2013-01-28 19:00:00,
2013-01-28 14:05:00,78.0,66.2,30.20,SSW,199,0.0,0.0,67,0.00,,---,0.00,VWS V13.01,2013-01-28 19:05:00,
2013-01-28 14:10:00,78.0,64.8,30.20,SSW,202,0.0,0.0,64,0.00,,---,0.00,VWS V13.01,2013-01-28 19:10:00,
2013-01-28 14:15:00,78.2,65.0,30.20,South,190,0.0,0.0,64,0.00,,---,0.00,VWS V13.01,2013-01-28 19:15:00,
2013-01-28 14:20:00,78.7,64.6,30.20,SSW,192,0.0,0.0,62,0.00,,---,0.00,VWS V13.01,2013-01-28 19:20:00,
2013-01-28 14:25:00,79.1,65.0,30.20,SSW,193,0.0,0.0,62,0.00,,---,0.00,VWS V13.01,2013-01-28 19:25:00,
2013-01-28 14:30:00,79.1,65.0,30.20,SSW,199,0.0,0.0,62,0.00,,---,0.00,VWS V13.01,2013-01-28 19:30:00,
2013-01-28 14:35:00,79.1,64.0,30.19,South,186,0.0,0.0,60,0.00,,---,0.00,VWS V13.01,2013-01-28 19:35:00,
2013-01-28 14:41:00,79.1,65.0,30.19,South,186,0.0,0.0,62,0.00,,---,0.00,VWS V13.01,2013-01-28 19:41:00,
2013-01-28 14:46:00,79.2,64.1,30.19,SSW,207,0.0,0.0,60,0.00,,---,0.00,VWS V13.01,2013-01-28 19:46:00,
2013-01-28 14:51:00,79.1,64.0,30.19,SSW,208,0.0,0.0,60,0.00,,---,0.00,VWS V13.01,2013-01-28 19:51:00,
2013-01-28 14:56:00,79.5,64.4,30.19,SSW,209,0.0,0.0,60,0.00,,---,0.00,VWS V13.01,2013-01-28 19:56:00,
2013-01-28 15:01:00,79.5,64.4,30.18,SSW,204,0.0,0.0,60,0.00,,---,0.00,VWS V13.01,2013-01-28 20:01:00,
2013-01-28 15:06:00,79.1,65.4,30.18,SSW,207,0.0,0.0,63,0.00,,---,0.00,VWS V13.01,2013-01-28 20:06:00,
2013-01-28 15:11:00,78.2,63.7,30.18,West,278,0.0,0.0,61,0.00,,---,0.00,VWS V13.01,2013-01-28 20:11:00,
2013-01-28 15:16:00,78.3,64.2,30.18,West,277,0.0,0.0,62,0.00,,---,0.00,VWS V13.01,2013-01-28 20:16:00,
2013-01-28 15:21:00,78.6,65.4,30.18,West,265,0.0,0.0,64,0.00,,---,0.00,VWS V13.01,2013-01-28 20:21:00,
2013-01-28 15:26:00,78.5,65.3,30.18,West,259,0.0,0.0,64,0.00,,---,0.00,VWS V13.01,2013-01-28 20:26:00,
2013-01-28 15:31:00,77.9,64.8,30.17,West,259,0.0,0.0,64,0.00,,---,0.00,VWS V13.01,2013-01-28 20:31:00,
2013-01-28 15:36:00,77.1,64.9,30.17,West,259,0.0,0.0,66,0.00,,---,0.00,VWS V13.01,2013-01-28 20:36:00,
2013-01-28 15:41:00,76.8,65.0,30.17,WNW,289,0.0,0.0,67,0.00,,---,0.00,VWS V13.01,2013-01-28 20:41:00,
2013-01-28 15:46:00,76.2,64.9,30.17,West,281,0.0,1.0,68,0.00,,---,0.00,VWS V13.01,2013-01-28 20:46:00,
2013-01-28 15:51:00,76.3,64.6,30.17,SSW,200,0.0,1.0,67,0.00,,---,0.00,VWS V13.01,2013-01-28 20:51:00,
2013-01-28 15:56:00,76.3,64.1,30.17,SSW,200,0.0,1.0,66,0.00,,---,0.00,VWS V13.01,2013-01-28 20:56:00,
2013-01-28 16:02:00,76.3,63.7,30.17,SSW,198,0.0,0.0,65,0.00,,---,0.00,VWS V13.01,2013-01-28 21:02:00,
2013-01-28 16:07:00,76.2,64.0,30.17,SSW,199,0.0,0.0,66,0.00,,---,0.00,VWS V13.01,2013-01-28 21:07:00,
2013-01-28 16:12:00,76.2,63.6,30.17,SSW,199,0.0,0.0,65,0.00,,---,0.00,VWS V13.01,2013-01-28 21:12:00,
2013-01-28 16:17:00,76.2,63.1,30.17,SSW,200,0.0,0.0,64,0.00,,---,0.00,VWS V13.01,2013-01-28 21:17:00,
2013-01-28 16:22:00,76.2,63.1,30.17,SSW,200,0.0,0.0,64,0.00,,---,0.00,VWS V13.01,2013-01-28 21:22:00,
2013-01-28 16:27:00,76.3,63.2,30.17,SSW,200,0.0,0.0,64,0.00,,---,0.00,VWS V13.01,2013-01-28 21:27:00,
2013-01-28 16:32:00,76.5,63.0,30.17,SSW,200,0.0,0.0,63,0.00,,---,0.00,VWS V13.01,2013-01-28 21:32:00,
2013-01-28 16:37:00,76.6,62.6,30.17,SSW,200,0.0,0.0,62,0.00,,---,0.00,VWS V13.01,2013-01-28 21:37:00,
2013-01-28 16:42:00,76.6,63.1,30.17,SSW,200,0.0,0.0,63,0.00,,---,0.00,VWS V13.01,2013-01-28 21:42:00,
2013-01-28 16:47:00,76.4,62.9,30.17,SSW,200,0.0,0.0,63,0.00,,---,0.00,VWS V13.01,2013-01-28 21:47:00,
2013-01-28 16:52:00,76.3,62.8,30.17,SSW,200,0.0,0.0,63,0.00,,---,0.00,VWS V13.01,2013-01-28 21:52:00,
2013-01-28 16:57:00,76.3,62.8,30.17,SSW,200,0.0,0.0,63,0.00,,---,0.00,VWS V13.01,2013-01-28 21:57:00,
2013-01-28 17:02:00,76.3,62.8,30.17,SSW,200,0.0,0.0,63,0.00,,---,0.00,VWS V13.01,2013-01-28 22:02:00,
2013-01-28 17:07:00,76.4,63.3,30.17,SSW,200,0.0,0.0,64,0.00,,---,0.00,VWS V13.01,2013-01-28 22:07:00,
2013-01-28 17:12:00,76.5,63.4,30.17,SSW,196,0.0,0.0,64,0.00,,---,0.00,VWS V13.01,2013-01-28 22:12:00,
2013-01-28 17:17:00,76.2,64.0,30.17,SSW,196,0.0,0.0,66,0.00,,---,0.00,VWS V13.01,2013-01-28 22:17:00,
2013-01-28 17:22:00,75.7,63.5,30.17,SSW,196,0.0,0.0,66,0.00,,---,0.00,VWS V13.01,2013-01-28 22:22:00,
2013-01-28 17:27:00,75.2,63.5,30.17,SSW,196,0.0,0.0,67,0.00,,---,0.00,VWS V13.01,2013-01-28 22:27:00,
2013-01-28 17:33:00,75.0,63.3,30.17,SSW,196,0.0,0.0,67,0.00,,---,0.00,VWS V13.01,2013-01-28 22:33:00,
2013-01-28 17:38:00,74.8,63.5,30.17,SSW,196,0.0,0.0,68,0.00,,---,0.00,VWS V13.01,2013-01-28 22:38:00,
2013-01-28 17:43:00,74.7,63.5,30.17,SSW,196,0.0,0.0,68,0.00,,---,0.00,VWS V13.01,2013-01-28 22:43:00,
2013-01-28 17:48:00,74.5,63.7,30.17,SSW,196,0.0,0.0,69,0.00,,---,0.00,VWS V13.01,2013-01-28 22:48:00,
2013-01-28 17:53:00,74.2,63.8,30.18,SSW,196,0.0,0.0,70,0.00,,---,0.00,VWS V13.01,2013-01-28 22:53:00,
2013-01-28 17:58:00,73.9,63.5,30.18,SSW,196,0.0,0.0,70,0.00,,---,0.00,VWS V13.01,2013-01-28 22:58:00,
2013-01-28 18:03:00,73.8,63.8,30.18,SSW,196,0.0,0.0,71,0.00,,---,0.00,VWS V13.01,2013-01-28 23:03:00,
2013-01-28 18:08:00,73.7,63.3,30.18,SSW,196,0.0,0.0,70,0.00,,---,0.00,VWS V13.01,2013-01-28 23:08:00,
2013-01-28 18:13:00,73.5,63.5,30.18,SSW,196,0.0,0.0,71,0.00,,---,0.00,VWS V13.01,2013-01-28 23:13:00,
2013-01-28 18:18:00,73.3,63.3,30.18,SSW,196,0.0,0.0,71,0.00,,---,0.00,VWS V13.01,2013-01-28 23:18:00,
2013-01-28 18:23:00,73.1,63.5,30.18,SSW,196,0.0,0.0,72,0.00,,---,0.00,VWS V13.01,2013-01-28 23:23:00,
2013-01-28 18:28:00,72.9,63.8,30.18,SSW,196,0.0,0.0,73,0.00,,---,0.00,VWS V13.01,2013-01-28 23:28:00,
2013-01-28 18:33:00,72.8,63.7,30.18,SSW,196,0.0,0.0,73,0.00,,---,0.00,VWS V13.01,2013-01-28 23:33:00,
2013-01-28 18:38:00,72.7,63.5,30.18,SSW,196,0.0,0.0,73,0.00,,---,0.00,VWS V13.01,2013-01-28 23:38:00,
2013-01-28 18:44:00,72.5,63.4,30.18,SSW,196,0.0,0.0,73,0.00,,---,0.00,VWS V13.01,2013-01-28 23:44:00,
2013-01-28 18:49:00,72.5,63.0,30.18,SSW,196,0.0,0.0,72,0.00,,---,0.00,VWS V13.01,2013-01-28 23:49:00,
2013-01-28 18:54:00,72.5,63.4,30.18,SSW,196,0.0,0.0,73,0.00,,---,0.00,VWS V13.01,2013-01-28 23:54:00,
2013-01-28 18:59:00,72.4,62.9,30.18,SSW,196,0.0,0.0,72,0.00,,---,0.00,VWS V13.01,2013-01-28 23:59:00,
2013-01-28 19:04:00,72.4,62.9,30.18,SSW,196,0.0,0.0,72,0.00,,---,0.00,VWS V13.01,2013-01-29 00:04:00,
2013-01-28 19:09:00,72.4,63.3,30.19,SSW,196,0.0,0.0,73,0.00,,---,0.00,VWS V13.01,2013-01-29 00:09:00,
2013-01-28 19:14:00,72.3,63.2,30.19,SSW,196,0.0,0.0,73,0.00,,---,0.00,VWS V13.01,2013-01-29 00:14:00,
2013-01-28 19:19:00,72.2,63.1,30.19,SSW,196,0.0,0.0,73,0.00,,---,0.00,VWS V13.01,2013-01-29 00:19:00,
2013-01-28 19:24:00,72.2,63.1,30.19,NNW,343,0.0,0.0,73,0.00,,---,0.00,VWS V13.01,2013-01-29 00:24:00,
2013-01-28 19:29:00,72.2,63.1,30.19,North,350,0.0,0.0,73,0.00,,---,0.00,VWS V13.01,2013-01-29 00:29:00,
2013-01-28 19:34:00,72.0,62.9,30.19,North,355,0.0,0.0,73,0.00,,---,0.00,VWS V13.01,2013-01-29 00:34:00,
2013-01-28 19:39:00,71.8,62.7,30.20,North,355,0.0,0.0,73,0.00,,---,0.00,VWS V13.01,2013-01-29 00:39:00,
2013-01-28 19:44:00,71.5,62.8,30.20,North,355,0.0,0.0,74,0.00,,---,0.00,VWS V13.01,2013-01-29 00:44:00,
2013-01-28 19:50:00,71.3,62.6,30.20,North,355,0.0,0.0,74,0.00,,---,0.00,VWS V13.01,2013-01-29 00:50:00,
2013-01-28 19:55:00,71.2,62.5,30.20,North,355,0.0,0.0,74,0.00,,---,0.00,VWS V13.01,2013-01-29 00:55:00,
2013-01-28 20:00:00,71.0,62.3,30.20,North,355,0.0,0.0,74,0.00,,---,0.00,VWS V13.01,2013-01-29 01:00:00,
2013-01-28 20:05:00,70.8,62.5,30.20,North,355,0.0,0.0,75,0.00,,---,0.00,VWS V13.01,2013-01-29 01:05:00,
2013-01-28 20:10:00,70.7,62.4,30.20,North,355,0.0,0.0,75,0.00,,---,0.00,VWS V13.01,2013-01-29 01:10:00,
2013-01-28 20:15:00,70.5,62.2,30.20,North,355,0.0,0.0,75,0.00,,---,0.00,VWS V13.01,2013-01-29 01:15:00,
2013-01-28 20:20:00,70.3,62.0,30.20,North,355,0.0,0.0,75,0.00,,---,0.00,VWS V13.01,2013-01-29 01:20:00,
2013-01-28 20:25:00,70.2,61.9,30.20,North,355,0.0,0.0,75,0.00,,---,0.00,VWS V13.01,2013-01-29 01:25:00,
2013-01-28 20:30:00,70.0,62.1,30.20,North,355,0.0,0.0,76,0.00,,---,0.00,VWS V13.01,2013-01-29 01:30:00,
2013-01-28 20:35:00,69.9,62.0,30.20,North,355,0.0,0.0,76,0.00,,---,0.00,VWS V13.01,2013-01-29 01:35:00,
2013-01-28 20:40:00,69.7,62.2,30.20,North,355,0.0,0.0,77,0.00,,---,0.00,VWS V13.01,2013-01-29 01:40:00,
2013-01-28 20:45:00,69.5,62.0,30.21,North,355,0.0,0.0,77,0.00,,---,0.00,VWS V13.01,2013-01-29 01:45:00,
2013-01-28 20:50:00,69.3,62.2,30.21,North,355,0.0,0.0,78,0.00,,---,0.00,VWS V13.01,2013-01-29 01:50:00,
2013-01-28 20:55:00,69.1,62.0,30.21,North,355,0.0,0.0,78,0.00,,---,0.00,VWS V13.01,2013-01-29 01:55:00,
2013-01-28 21:01:00,69.0,61.9,30.21,North,355,0.0,0.0,78,0.00,,---,0.00,VWS V13.01,2013-01-29 02:01:00,
2013-01-28 21:06:00,69.0,62.2,30.21,North,355,0.0,0.0,79,0.00,,---,0.00,VWS V13.01,2013-01-29 02:06:00,
2013-01-28 21:11:00,69.3,63.2,30.21,North,360,0.0,0.0,81,0.00,,---,0.00,VWS V13.01,2013-01-29 02:11:00,
2013-01-28 21:16:00,69.7,63.6,30.21,NE,51,0.0,0.0,81,0.00,,---,0.00,VWS V13.01,2013-01-29 02:16:00,
2013-01-28 21:21:00,70.1,64.4,30.21,ENE,74,0.0,0.0,82,0.00,,---,0.00,VWS V13.01,2013-01-29 02:21:00,
2013-01-28 21:26:00,70.5,64.8,30.21,ESE,103,0.0,0.0,82,0.00,,---,0.00,VWS V13.01,2013-01-29 02:26:00,
2013-01-28 21:31:00,70.9,65.1,30.21,ESE,108,0.0,0.0,82,0.00,,---,0.00,VWS V13.01,2013-01-29 02:31:00,
2013-01-28 21:36:00,71.1,65.3,30.21,ESE,108,0.0,0.0,82,0.00,,---,0.00,VWS V13.01,2013-01-29 02:36:00,
2013-01-28 21:41:00,71.2,65.4,30.21,East,101,0.0,0.0,82,0.00,,---,0.00,VWS V13.01,2013-01-29 02:41:00,
2013-01-28 21:46:00,71.2,65.4,30.21,ESE,103,0.0,0.0,82,0.00,,---,0.00,VWS V13.01,2013-01-29 02:46:00,
2013-01-28 21:51:00,71.3,65.5,30.21,ESE,116,0.0,0.0,82,0.00,,---,0.00,VWS V13.01,2013-01-29 02:51:00,
2013-01-28 21:56:00,71.3,65.5,30.21,ESE,116,0.0,0.0,82,0.00,,---,0.00,VWS V13.01,2013-01-29 02:56:00,
2013-01-28 22:01:00,71.2,65.4,30.21,ESE,116,0.0,0.0,82,0.00,,---,0.00,VWS V13.01,2013-01-29 03:01:00,
2013-01-28 22:06:00,71.2,65.4,30.21,ESE,115,0.0,0.0,82,0.00,,---,0.00,VWS V13.01,2013-01-29 03:06:00,
2013-01-28 22:11:00,71.0,65.2,30.21,ESE,115,0.0,0.0,82,0.00,,---,0.00,VWS V13.01,2013-01-29 03:11:00,
2013-01-28 22:17:00,71.0,65.2,30.21,ESE,106,0.0,0.0,82,0.00,,---,0.00,VWS V13.01,2013-01-29 03:17:00,
2013-01-28 22:22:00,70.9,65.1,30.21,ESE,116,0.0,0.0,82,0.00,,---,0.00,VWS V13.01,2013-01-29 03:22:00,
2013-01-28 22:27:00,70.8,65.4,30.21,ESE,116,0.0,0.0,83,0.00,,---,0.00,VWS V13.01,2013-01-29 03:27:00,
2013-01-28 22:32:00,70.6,65.2,30.21,ESE,106,0.0,0.0,83,0.00,,---,0.00,VWS V13.01,2013-01-29 03:32:00,
2013-01-28 22:37:00,70.5,65.1,30.21,ESE,109,0.0,0.0,83,0.00,,---,0.00,VWS V13.01,2013-01-29 03:37:00,
2013-01-28 22:42:00,70.5,65.1,30.21,ESE,110,0.0,0.0,83,0.00,,---,0.00,VWS V13.01,2013-01-29 03:42:00,
2013-01-28 22:47:00,70.4,65.0,30.21,ESE,108,0.0,0.0,83,0.00,,---,0.00,VWS V13.01,2013-01-29 03:47:00,
2013-01-28 22:52:00,70.3,65.2,30.21,ESE,108,0.0,0.0,84,0.00,,---,0.00,VWS V13.01,2013-01-29 03:52:00,
2013-01-28 22:57:00,70.2,65.1,30.20,ESE,104,0.0,0.0,84,0.00,,---,0.00,VWS V13.01,2013-01-29 03:57:00,
2013-01-28 23:02:00,70.0,64.9,30.20,ESE,105,0.0,0.0,84,0.00,,---,0.00,VWS V13.01,2013-01-29 04:02:00,
2013-01-28 23:07:00,69.9,64.8,30.20,ESE,111,0.0,0.0,84,0.00,,---,0.00,VWS V13.01,2013-01-29 04:07:00,
2013-01-28 23:12:00,69.8,64.8,30.20,East,100,0.0,0.0,84,0.00,,---,0.00,VWS V13.01,2013-01-29 04:12:00,
2013-01-28 23:17:00,69.7,65.0,30.20,SE,126,0.0,0.0,85,0.00,,---,0.00,VWS V13.01,2013-01-29 04:17:00,
2013-01-28 23:22:00,69.5,64.8,30.20,East,82,0.0,0.0,85,0.00,,---,0.00,VWS V13.01,2013-01-29 04:22:00,
2013-01-28 23:27:00,69.4,64.7,30.20,East,86,0.0,0.0,85,0.00,,---,0.00,VWS V13.01,2013-01-29 04:27:00,
2013-01-28 23:33:00,69.3,64.6,30.20,East,100,0.0,0.0,85,0.00,,---,0.00,VWS V13.01,2013-01-29 04:33:00,
2013-01-28 23:38:00,69.2,64.5,30.19,ESE,102,0.0,0.0,85,0.00,,---,0.00,VWS V13.01,2013-01-29 04:38:00,
2013-01-28 23:43:00,69.0,64.3,30.19,East,100,0.0,0.0,85,0.00,,---,0.00,VWS V13.01,2013-01-29 04:43:00,
2013-01-28 23:48:00,68.9,64.6,30.19,East,96,0.0,0.0,86,0.00,,---,0.00,VWS V13.01,2013-01-29 04:48:00,
2013-01-28 23:53:00,68.8,64.4,30.19,East,96,0.0,0.0,86,0.00,,---,0.00,VWS V13.01,2013-01-29 04:53:00,
2013-01-28 23:58:00,68.6,64.2,30.19,East,101,0.0,0.0,86,0.00,,---,0.00,VWS V13.01,2013-01-29 04:58:00,